This demonstration page uses our WeatherBlox Daily Observations layout. Learn more.

Left ArrowRight Arrow

41.86663, -103.66717

Hourly Observations for February 26, 2019

Temp ( °F °C ) Dew Point ( °F °C ) Humidity (%) Winds ( mph kmh ) Pressure ( in mb ) Visibility ( mi km ) Precip ( " mm )
12:23 am 00:23 Cloudy 8 -13.3 5 -15 87 87 ESE 16 26 30.38 1029 10 16 N/A
12:43 am 00:43 Partly Cloudy 9 -13 5 -15 85 85 ESE 17 28 30.38 1029 10 16 N/A
12:53 am 00:53 Mostly Clear 7 -13.9 5 -15 91 91 ESE 17 28 30.26 1025 10 16 N/A
1:53 am 01:53 Clear 7 -13.9 5 -15 91 91 ESE 17 28 30.25 1024 10 16 N/A
2:53 am 02:53 Clear 7 -13.9 5 -15 91 91 ESE 17 28 30.22 1023 10 16 N/A
3:36 am 03:36 Mostly Cloudy 7 -13.9 5 -15 91 91 ESE 18 30 30.35 1028 10 16 N/A
3:53 am 03:53 Mostly Cloudy 7 -13.9 4 -15.6 87 87 ESE 18 30 30.21 1023 10 16 N/A
4:05 am 04:05 Partly Cloudy 7 -13.9 4 -15.6 87 87 ESE 18 30 30.34 1027 10 16 N/A
4:53 am 04:53 Mostly Clear 7 -13.9 4 -15.6 87 87 ESE 17 28 30.17 1022 9 14 N/A
5:53 am 05:53 Clear 7 -13.9 4 -15.6 87 87 ESE 14 22 30.18 1022 7 11 N/A
6:53 am 06:53 Sunny with Mist and Fog 7 -13.9 5 -15 91 91 ESE 14 22 30.15 1021 5 8 N/A
7:53 am 07:53 Sunny with Mist and Fog 10 -12.2 7 -13.9 87 87 ESE 15 24 30.16 1021 6 10 N/A
8:53 am 08:53 Sunny 14 -10 9 -12.8 80 80 ESE 12 19 30.15 1021 8 13 N/A
9:53 am 09:53 Sunny 19 -7.2 11 -11.7 71 71 SE 8 13 30.13 1020 10 16 N/A
10:53 am 10:53 Sunny 24 -4.4 13 -10.6 62 62 SE 6 9 30.10 1019 10 16 N/A
11:53 am 11:53 Sunny 29 -1.7 15 -9.4 56 56 ESE 5 7 30.08 1019 10 16 N/A
12:53 pm 12:53 Sunny 36 2.2 18 -7.8 48 48 SE 5 7 30.03 1017 10 16 N/A
1:53 pm 13:53 Sunny 44 6.7 21 -6.1 40 40 E 5 7 29.98 1015 10 16 N/A
2:53 pm 14:53 Sunny 43 6.1 21 -6.1 42 42 ENE 9 15 29.99 1016 10 16 N/A
3:53 pm 15:53 Mostly Cloudy 45 7.2 23 -5 42 42 E 13 20 30.00 1016 10 16 N/A
4:53 pm 16:53 Sunny 34 1.1 23 -5 64 64 NE 16 26 30.06 1018 10 16 N/A
5:53 pm 17:53 Clear 26 -3.3 18 -7.8 71 71 NE 10 17 30.14 1021 10 16 N/A
6:53 pm 18:53 Clear 18 -7.8 12 -11.1 77 77 NE 10 17 30.22 1023 10 16 N/A
7:53 pm 19:53 Clear 15 -9.4 10 -12.2 80 80 NNE 9 15 30.27 1025 10 16 N/A
8:53 pm 20:53 Clear 12 -11.1 7 -13.9 80 80 NNE 9 15 30.31 1026 10 16 N/A
9:53 pm 21:53 Clear 9 -12.8 5 -15 84 84 NE 10 17 30.35 1028 10 16 N/A
10:51 pm 22:51 Mostly Cloudy 7 -14 3 -16 85 85 NNE 8 13 30.54 1034 10 16 N/A
10:53 pm 22:53 Mostly Cloudy 7 -13.9 3 -16.1 84 84 NNE 8 13 30.36 1028 10 16 N/A
11:53 pm 23:53 Mostly Cloudy 6 -14.4 2 -16.7 83 83 NNE 7 11 30.36 1028 10 16 N/A

Powered by AerisWeather